STARLINK-1297 (45395 NORAD) Tracking and Keplerian Element Data

This shows tracking and keplerian element data for the satellite.

Feedback or suggestion? Click here.




ElementValue
Catalog45395
NameSTARLINK-1297
Epoch Orbit1694
Epoch Day185.16667824
Epoch Year2020
RAAN103.9222
Inclination53.0147
Eccentricity0.0001697
Argument of Perigee71.7311
Mean Anonmoly266.1993
Mean Motion15.05599022
Decay Rate-0.00023712
L11 45395U 20019AM 20185.16667824 -.00023712 00000-0 -16128-2 0 9991
L22 45395 53.0147 103.9222 0001697 71.7311 266.1993 15.05599022 16944

Live tracking and technical data element details for STARLINK-1297 (NORAD 45395). STARLINK-1297 can be tracked NOW for your location showing map with azimuth and elevation plus other details from your city location.

Track the satellite on the map from your city or location and see movement details for azimuth, elevation, latitude, longitude, range, height, and movement on the map or in text.







IsCatalogInMostPopularTable: catalog: 45395, numindb: 24
Update: records affected: 1



GetName: 45395 STARLINK-1297

Hit Count: updated at: Fri, 03 Jul 2020 16:00:19 GMT